Flag for U.S.A. Weather past 2 weeks in Howell, Michigan, U.S.A.

Now
54 °F

Clear.


Feels Like: 52 °F
Forecast: 53 / 71 °F
Wind: 8 mph from South

Location: Livingston County Airport

Current Time: Sep 20, 2014 at 2:54:28 AM

Latest Report: Sep 20, 2014 at 2:35 AM


Visibility: 10 mi

Pressure: 29.98 "Hg

Humidity: 84%

Dew point: 50 °F

Location of HowellLocation

Historic Weather in Howell — Graph

°F

Howell temperature yesterday

Maximum temperature yesterday: 66 °F (at 4:35 PM)
Minimum temperature yesterday: 38 °F (at 7:34 AM)
Average temperature yesterday: 53 °F

Past Weeks' High & Low Weather Summary

 TemperatureHumidityPressure
High90 °F (Sep 5, 3:35 PM)100% (Sep 18, 10:15 AM)30.35 "Hg (Sep 18, 10:15 AM)
Low38 °F (Sep 14, 4:35 AM)38% (Sep 7, 3:15 PM)29.57 "Hg (Sep 10, 7:14 PM)
Average58 °F81%30.10 "Hg
* Reported Sep 5 1:15 AM — Sep 20 1:35 AM, Howell, Weather by CustomWeather, © 2014

Note: Actual official high and low records may vary slightly from our data, if they occured in-between our weather recording intervals... More about our weather records

Advertising

Howell weather history for previous 24 hours

 ConditionsComfort  
Time TempWeatherWind HumidityBarometerVisibility
1:35 AM
Sep 20
54 °FClear.7 mph89%30.00 "Hg10 mi
1:15 AM54 °FClear.7 mph91%30.01 "Hg10 mi
12:55 AM54 °FClear.8 mph91%30.01 "Hg10 mi
12:35 AM54 °FClear.8 mph91%30.02 "Hg10 mi
12:15 AM54 °FClear.5 mph92%30.03 "Hg7 mi
11:55 PM
Sep 19
54 °FClear.7 mph91%30.03 "Hg10 mi
11:35 PM53 °FClear.6 mph93%30.04 "Hg7 mi
10:55 PM53 °FClear.7 mph90%30.05 "Hg10 mi
10:35 PM53 °FClear.5 mph88%30.06 "Hg10 mi
10:15 PM54 °FClear.5 mph85%30.07 "Hg10 mi
9:54 PM54 °FClear.7 mph85%30.06 "Hg10 mi
9:15 PM55 °FClear.7 mph84%30.06 "Hg10 mi
8:54 PM55 °FClear.10 mph83%30.06 "Hg10 mi
8:35 PM56 °FSunny.6 mph82%30.07 "Hg10 mi
8:15 PM57 °FSunny.7 mph77%30.07 "Hg10 mi
7:54 PM58 °FSunny.7 mph70%30.07 "Hg10 mi
7:35 PM59 °FSunny.6 mph67%30.07 "Hg10 mi
6:55 PM62 °FSunny.6 mph57%30.08 "Hg10 mi
6:35 PM64 °FSunny.7 mph53%30.09 "Hg10 mi
6:15 PM64 °FSunny.6 mph54%30.09 "Hg10 mi
5:55 PM64 °FSunny.8 mph51%30.10 "Hg10 mi
5:35 PM65 °FSunny.7 mph51%30.11 "Hg10 mi
5:15 PM65 °FSunny.8 mph49%30.11 "Hg10 mi
4:55 PM65 °FSunny.7 mph51%30.12 "Hg10 mi
4:35 PM66 °FSunny.8 mph49%30.13 "Hg10 mi
4:15 PM65 °FSunny.6 mph51%30.15 "Hg10 mi
3:55 PM65 °FSunny.9 mph51%30.15 "Hg10 mi
3:35 PM65 °FSunny.8 mph52%30.15 "Hg10 mi
3:14 PM65 °FSunny.6 mph52%30.16 "Hg10 mi
2:55 PM65 °FSunny.3 mph49%30.17 "Hg10 mi
2:35 PM64 °FSunny.7 mph51%30.18 "Hg10 mi
1:55 PM64 °FSunny.8 mph54%30.19 "Hg10 mi
1:35 PM64 °FSunny.8 mph55%30.20 "Hg10 mi
1:14 PM63 °FSunny.3 mph56%30.20 "Hg10 mi
12:55 PM62 °FSunny.5 mph55%30.21 "Hg10 mi
12:35 PM61 °FSunny.No wind55%30.22 "Hg10 mi
12:14 PM61 °FSunny.No wind56%30.22 "Hg10 mi
11:55 AM59 °FSunny.3 mph57%30.23 "Hg10 mi
11:35 AM59 °FSunny.5 mph60%30.24 "Hg10 mi
11:15 AM58 °FSunny.3 mph63%30.25 "Hg10 mi
10:55 AM56 °FSunny.3 mph66%30.25 "Hg10 mi
10:35 AM56 °FSunny.No wind71%30.25 "Hg10 mi
10:15 AM54 °FSunny.3 mph76%30.25 "Hg10 mi
9:55 AM52 °FSunny.3 mph83%30.26 "Hg10 mi
9:35 AM50 °FSunny.3 mph86%30.26 "Hg10 mi
9:15 AM48 °FSunny.No wind94%30.26 "Hg10 mi
8:55 AM46 °FSunny.No wind98%30.26 "Hg10 mi
8:35 AM43 °FFog.No wind99%30.25 "Hg5 mi
7:55 AM39 °FClear.No wind98%30.25 "Hg7 mi
7:34 AM38 °FFog.No wind99%30.25 "Hg2 mi
7:15 AM39 °FFog.No wind98%30.24 "Hg5 mi
6:55 AM40 °FClear.No wind99%30.24 "Hg7 mi
6:34 AM40 °FFog.No wind98%30.23 "Hg5 mi
6:15 AM39 °FClear.No wind98%30.23 "Hg10 mi
5:55 AM40 °FFog.No wind98%30.23 "Hg5 mi
5:34 AM40 °FClear.No wind98%30.23 "Hg7 mi
5:15 AM40 °FPassing clouds.No wind98%30.23 "Hg7 mi
4:55 AM41 °FClear.No wind97%30.23 "Hg7 mi
4:34 AM41 °FClear.No wind98%30.23 "Hg7 mi
4:15 AM42 °FClear.No wind97%30.23 "Hg7 mi
3:55 AM42 °FClear.No wind97%30.23 "Hg7 mi
3:34 AM42 °FClear.No wind97%30.23 "Hg7 mi
3:15 AM42 °FClear.No wind98%30.23 "Hg7 mi
2:54 AM43 °FClear.3 mph97%30.24 "Hg10 mi
2:35 AM43 °FClear.3 mph97%30.24 "Hg10 mi
Weather by CustomWeather, © 2014

See weather overviewHow to use our weather pages